Location: Muenchen
(48.1800°N, 11.5800°E)
Time: 12:42:48
(UTC+02:00)

ISS - Visible Passes

Search period start: 30 May 2016 00:00
Search period end: 09 June 2016 00:00
Orbit: 402 x 404 km, 51.6° (Epoch: 30 May)

Date Brightness Start Highest point End Pass type
(mag) Time Alt. Az. Time Alt. Az. Time Alt. Az.
30 May -2.2 01:07:24 10° WNW 01:10:34 45° N 01:13:44 10° E visible
30 May -3.5 02:43:54 10° WNW 02:47:09 71° SSW 02:50:24 10° ESE visible
30 May -1.6 04:21:20 10° WSW 04:23:07 14° SW 04:24:55 10° S visible
30 May -3.1 22:37:42 10° WSW 22:40:58 73° NNW 22:44:14 10° ENE visible
31 May -2.1 00:14:33 10° WNW 00:17:41 43° N 00:20:51 10° ENE visible
31 May -3.3 01:51:07 10° WNW 01:54:24 78° NNE 01:56:20 22° ESE visible
31 May -1.3 03:27:55 10° W 03:28:43 15° W 03:28:43 15° W visible
31 May -3.4 21:44:56 10° WSW 21:48:12 78° SSE 21:51:28 10° ENE visible
31 May -2.2 23:21:39 10° W 23:24:49 44° N 23:27:58 10° ENE visible
01 Jun -2.8 00:58:20 10° WNW 01:01:34 57° NNE 01:03:26 23° E visible
01 Jun -1.4 02:34:54 10° WNW 02:35:57 18° W 02:35:57 18° W visible
01 Jun -2.4 22:28:44 10° W 22:31:56 51° NNW 22:35:09 10° ENE visible
02 Jun -2.3 00:05:32 10° WNW 00:08:43 47° N 00:11:37 12° E visible
02 Jun -2.4 01:42:01 10° WNW 01:44:11 36° W 01:44:11 36° W visible
02 Jun -2.1 23:12:41 10° WNW 23:15:50 43° N 23:18:59 10° ENE visible
03 Jun -3.4 00:49:13 10° WNW 00:52:30 86° NNE 00:52:42 77° E visible
03 Jun -2.1 22:19:47 10° WNW 22:22:56 43° N 22:26:06 10° ENE visible
03 Jun -2.9 23:56:26 10° WNW 23:59:41 62° NNE 00:01:23 25° E visible
04 Jun -1.1 01:33:02 10° W 01:33:57 16° W 01:33:57 16° W visible
04 Jun -2.5 23:03:37 10° WNW 23:06:50 49° N 23:10:01 10° E visible
05 Jun -2.8 00:40:07 10° WNW 00:42:42 44° WSW 00:42:42 44° WSW visible
05 Jun -2.2 22:10:46 10° WNW 22:13:56 44° N 22:17:05 10° ENE visible
05 Jun -3.5 23:47:17 10° WNW 23:50:34 85° SSW 23:51:31 43° ESE visible
06 Jun -3.1 22:54:29 10° WNW 22:57:45 68° NNE 23:00:22 15° E visible
07 Jun -1.7 00:31:09 10° W 00:32:57 23° WSW 00:32:57 23° WSW visible
07 Jun -2.6 22:01:40 10° WNW 22:04:53 52° NNE 22:08:06 10° E visible
07 Jun -3.0 23:38:11 10° WNW 23:41:21 46° SSW 23:41:51 42° S visible
08 Jun -3.4 22:45:19 10° WNW 22:48:35 75° SSW 22:50:46 19° ESE visible
